Elizabeth City, NC

8:47 AM EST on February 26, 2017 (GMT -0500)
Elizabeth City Cgas-Regional

Weather History for KECG - November, 2012

Change the Weather History Date:

Monday, November 5, 2012

  Actual Average Record
Temperature  
Mean Temperature 49 °F 56 °F  
Max Temperature 56 °F 67 °F 84 °F (2003)
Min Temperature 42 °F 45 °F 26 °F (1937)
Degree Days  
Heating Degree Days 16 9  
Month to date heating degree days 80 44  
Since 1 July heating degree days 165 195  
Cooling Degree Days 0 0  
Month to date cooling degree days 0 4  
Year to date cooling degree days 2233 1585  
Moisture  
Dew Point 35 °F    
Average Humidity 57    
Maximum Humidity 76    
Minimum Humidity 38    
Precipitation  
Precipitation T in 0.11 in 1.40 in (1939)
Month to date precipitation T 0.56  
Year to date precipitation 43.56 41.52  
Snow  
Snow 0.00 in - 0.00 in (2002)
Month to date snowfall 0.0  
Since 1 July snowfall 0.0  
Snow Depth 0.00 in    
Sea Level Pressure  
Sea Level Pressure 30.07 in    
Wind  
Wind Speed 11 mph (North)    
Max Wind Speed 17 mph    
Max Gust Speed 22 mph    
Visibility 10 miles    
Events      
T = Trace of Precipitation, MM = Missing Value Source: NWS Daily Summary

Daily Weather History Graph

Daily Weather History Graph

Search for Another Location

Airport or City:

Trip Planner

Search our weather history database for the weather conditions in past years. The results will help you decide how hot, cold, wet, or windy it might be!

Date:

Astronomy

Nov. 05, 2012 Rise Set
Actual Time 6:32 AM EST 5:04 PM EST
Civil Twilight 6:05 AM EST 5:30 PM EST
Nautical Twilight 5:34 AM EST 6:01 PM EST
Astronomical Twilight 5:04 AM EST 6:31 PM EST
Moon 10:39 PM EST (11/5) 11:49 AM EST (11/5)
Length of Visible Light 11h 25m
Length of Day
10h 32m
Waning Gibbous, 63% of the Moon is Illuminated
Nov 5
Waning Gibbous
Nov 6
Last Quarter
Nov 13
New
Nov 20
First Quarter
Nov 28
Full

Hourly Weather History & Observations

Time (EST) Temp. Windchill Dew Point Humidity Pressure Visibility Wind Dir Wind Speed Gust Speed Precip Events Conditions
12:54 AM 48.9 °F - 39.9 °F 71% 30.00 in 10.0 mi NNW 8.1 mph - 0.00 in   Overcast
1:54 AM 50.0 °F - 39.0 °F 66% 29.99 in 10.0 mi NNW 10.4 mph - N/A   Overcast
2:54 AM 48.9 °F - 39.0 °F 69% 29.99 in 10.0 mi North 12.7 mph - N/A   Overcast
3:54 AM 46.9 °F - 37.9 °F 71% 30.02 in 10.0 mi NNW 12.7 mph - N/A   Scattered Clouds
4:54 AM 46.0 °F 40.2 °F 35.1 °F 66% 30.03 in 10.0 mi North 12.7 mph - N/A   Mostly Cloudy
5:54 AM 45.0 °F 39.7 °F 34.0 °F 65% 30.04 in 10.0 mi North 10.4 mph - N/A   Clear
6:54 AM 43.0 °F 38.2 °F 35.1 °F 74% 30.05 in 10.0 mi NW 8.1 mph - N/A   Clear
7:54 AM 46.0 °F 40.2 °F 34.0 °F 63% 30.07 in 10.0 mi NNW 12.7 mph - N/A   Clear
8:54 AM 48.9 °F - 34.0 °F 56% 30.08 in 10.0 mi NNW 15.0 mph - N/A   Clear
9:54 AM 51.1 °F - 34.0 °F 52% 30.08 in 10.0 mi North 13.8 mph - N/A   Clear
10:54 AM 54.0 °F - 32.0 °F 43% 30.08 in 10.0 mi North 10.4 mph - N/A   Clear
11:54 AM 54.0 °F - 30.9 °F 41% 30.05 in 10.0 mi NNW 13.8 mph - N/A   Clear
12:54 PM 55.0 °F - 30.9 °F 40% 30.04 in 10.0 mi NW 12.7 mph - N/A   Clear
1:54 PM 55.0 °F - 30.9 °F 40% 30.04 in 10.0 mi North 10.4 mph 19.6 mph N/A   Clear
2:54 PM 55.0 °F - 33.1 °F 43% 30.05 in 10.0 mi North 10.4 mph - N/A   Clear
3:54 PM 52.0 °F - 35.1 °F 53% 30.05 in 10.0 mi NNE 12.7 mph - N/A   Clear
4:54 PM 48.9 °F - 34.0 °F 56% 30.07 in 10.0 mi NNE 12.7 mph - N/A   Clear
5:54 PM 46.9 °F - 34.0 °F 61% 30.09 in 10.0 mi NNE 10.4 mph - N/A   Clear
6:54 PM 46.0 °F 41.9 °F 34.0 °F 63% 30.11 in 10.0 mi NE 8.1 mph - N/A   Clear
7:54 PM 46.0 °F 41.9 °F 34.0 °F 63% 30.11 in 10.0 mi North 8.1 mph - N/A   Clear
8:54 PM 45.0 °F 40.1 °F 35.1 °F 68% 30.14 in 10.0 mi North 9.2 mph - N/A   Clear
9:54 PM 45.0 °F 40.1 °F 35.1 °F 68% 30.14 in 10.0 mi NNE 9.2 mph - N/A   Clear
10:54 PM 45.0 °F 39.7 °F 34.0 °F 65% 30.13 in 10.0 mi North 10.4 mph - N/A   Clear
11:54 PM 45.0 °F 40.1 °F 33.1 °F 63% 30.12 in 10.0 mi North 9.2 mph - N/A   Clear